Flag for United Kingdom Weather past 2 weeks in Plymouth, England, United Kingdom

Now
55 °F

Passing clouds.


Feels Like: 53 °F
Forecast: 53 / 54 °F
Wind: 8 mph from Southwest

Location: Exeter Airport

Current Time: Dec 18, 2014 at 7:42:55 AM

Latest Report: Dec 18, 2014 at 7:20 AM


Visibility: N/A

Pressure: 29.92 "Hg

Humidity: 88%

Dew point: 52 °F

Location of PlymouthLocation

Historic Weather in Plymouth — Graph

°F

Plymouth temperature yesterday

Maximum temperature yesterday: 55 °F (at 8:20 PM)
Minimum temperature yesterday: 50 °F (at 12:20 AM)
Average temperature yesterday: 53 °F

Past Weeks' High & Low Weather Summary

 TemperatureHumidityPressure
High55 °F (Dec 9, 11:20 PM)100% (Dec 6, 7:20 AM)30.42 "Hg (Dec 6, 7:20 AM)
Low28 °F (Dec 13, 5:50 AM)61% (Dec 8, 2:50 PM)29.33 "Hg (Dec 12, 5:50 AM)
Average44 °F85%30.01 "Hg
* Reported Dec 3 6:20 AM — Dec 18 6:50 AM, Plymouth, Weather by CustomWeather, © 2014

Note: Actual official high and low records may vary slightly from our data, if they occured in-between our weather recording intervals... More about our weather records

Advertising

Plymouth weather history for previous 24 hours

 ConditionsComfort  
Time TempWeatherWind HumidityBarometerVisibility
6:50 AM
Dec 18
55 °FPassing clouds.10 mph88%29.92 "HgN/A
6:20 AM55 °FPassing clouds.9 mph88%29.92 "HgN/A
2:20 AM55 °FPassing clouds.18 mph88%29.92 "HgN/A
1:50 AM55 °FPassing clouds.17 mph88%29.89 "HgN/A
1:20 AM55 °FPassing clouds.20 mph82%29.89 "HgN/A
12:50 AM55 °FPassing clouds.16 mph88%29.89 "HgN/A
12:20 AM55 °FPassing clouds.16 mph88%29.89 "HgN/A
11:50 PM
Dec 17
55 °FPassing clouds.18 mph88%29.89 "HgN/A
11:20 PM55 °FPassing clouds.17 mph88%29.89 "HgN/A
10:20 PM55 °FPassing clouds.15 mph88%29.89 "HgN/A
9:50 PM55 °FPassing clouds.14 mph88%29.89 "HgN/A
9:20 PM54 °FPassing clouds.17 mph94%29.86 "HgN/A
8:50 PM54 °FPassing clouds.17 mph94%29.86 "Hg5 mi
8:20 PM55 °FPassing clouds.15 mph88%29.86 "Hg5 mi
7:50 PM54 °FPassing clouds.16 mph94%29.86 "Hg5 mi
7:20 PM54 °FPassing clouds.18 mph94%29.86 "HgN/A
6:50 PM54 °FPassing clouds.17 mph94%29.83 "HgN/A
6:20 PM54 °FPassing clouds.16 mph94%29.83 "Hg6 mi
5:50 PM54 °FPassing clouds.15 mph94%29.83 "Hg5 mi
5:20 PM54 °FLight rain. Passing clouds.13 mph94%29.83 "Hg6 mi
4:50 PM54 °FLight rain. Passing clouds.13 mph94%29.83 "Hg5 mi
4:20 PM54 °FLight rain. Passing clouds.10 mph94%29.83 "Hg5 mi
3:50 PM54 °FLight rain. Fog.10 mph94%29.83 "Hg2 mi
3:20 PM54 °FDrizzle. Fog.7 mph94%29.83 "Hg2 mi
2:50 PM54 °FDrizzle. Fog.9 mph94%29.83 "Hg2 mi
2:20 PM54 °FPartly sunny.12 mph94%29.83 "Hg4 mi
1:50 PM54 °FPartly sunny.14 mph94%29.83 "Hg5 mi
1:20 PM54 °FDrizzle. Partly sunny.14 mph94%29.80 "Hg5 mi
12:50 PM54 °FPartly sunny.13 mph94%29.83 "Hg5 mi
12:20 PM54 °FDrizzle. Partly sunny.14 mph94%29.83 "Hg4 mi
11:50 AM54 °FDrizzle. Partly sunny.13 mph94%29.80 "HgN/A
11:20 AM54 °FPartly sunny.14 mph94%29.80 "HgN/A
10:50 AM54 °FPartly sunny.16 mph94%29.80 "HgN/A
10:20 AM54 °FPartly sunny.17 mph94%29.80 "HgN/A
9:50 AM54 °FPartly sunny.14 mph94%29.77 "HgN/A
9:20 AM54 °FPartly sunny.15 mph94%29.77 "HgN/A
8:50 AM54 °FPartly sunny.18 mph88%29.77 "HgN/A
8:20 AM54 °FPartly sunny.17 mph88%29.74 "HgN/A
7:50 AM52 °FPassing clouds.16 mph94%29.74 "Hg5 mi
7:20 AM52 °FPassing clouds.17 mph94%29.74 "Hg5 mi
Weather by CustomWeather, © 2014

See weather overviewHow to use our weather pages